Time,TemperatureF,DewpointF,PressureIn,WindDirection,WindDirectionDegrees,WindSpeedMPH,WindSpeedGustMPH,Humidity,HourlyPrecipIn,Conditions,Clouds,dailyrainin,SoftwareType,DateUTC
2013-10-13 00:04:00,41.9,36.7,29.30,NNW,338,0.0,0.0,82,0.00,,,0.00,WUHU216HW,2013-10-13 05:04:00,
2013-10-13 00:09:00,41.5,36.6,29.30,NNW,338,0.0,0.0,83,0.00,,,0.00,WUHU216HW,2013-10-13 05:09:00,
2013-10-13 00:14:00,41.5,36.6,29.31,NNW,338,0.0,0.0,83,0.00,,,0.00,WUHU216HW,2013-10-13 05:14:00,
2013-10-13 00:19:00,41.5,36.6,29.31,NNW,338,0.0,0.0,83,0.00,,,0.00,WUHU216HW,2013-10-13 05:19:00,
2013-10-13 00:24:00,41.5,36.6,29.31,NNW,338,0.0,0.0,83,0.00,,,0.00,WUHU216HW,2013-10-13 05:24:00,
2013-10-13 00:29:00,41.3,36.5,29.31,NNW,338,0.0,0.0,83,0.00,,,0.00,WUHU216HW,2013-10-13 05:29:00,
2013-10-13 00:34:00,41.0,36.1,29.31,NNW,338,0.0,0.0,83,0.00,,,0.00,WUHU216HW,2013-10-13 05:34:00,
2013-10-13 00:39:00,40.8,35.9,29.31,NNW,338,0.0,0.0,83,0.00,,,0.00,WUHU216HW,2013-10-13 05:39:00,
2013-10-13 00:45:00,40.8,35.9,29.32,NNW,338,0.0,0.0,83,0.00,,,0.00,WUHU216HW,2013-10-13 05:45:00,
2013-10-13 00:50:00,40.2,35.4,29.32,NNW,338,0.0,0.0,83,0.00,,,0.00,WUHU216HW,2013-10-13 05:50:00,
2013-10-13 00:55:00,40.2,35.7,29.32,NNW,338,0.0,0.0,84,0.00,,,0.00,WUHU216HW,2013-10-13 05:55:00,
2013-10-13 01:00:00,40.1,35.6,29.32,NNW,338,0.0,0.0,84,0.00,,,0.00,WUHU216HW,2013-10-13 06:00:00,
2013-10-13 01:05:00,39.9,35.4,29.32,NNW,338,0.0,0.0,84,0.00,,,0.00,WUHU216HW,2013-10-13 06:05:00,
2013-10-13 01:10:00,40.1,35.6,29.32,NNW,338,0.0,0.0,84,0.00,,,0.00,WUHU216HW,2013-10-13 06:10:00,
2013-10-13 01:15:00,39.9,35.4,29.32,NNW,338,0.0,0.0,84,0.00,,,0.00,WUHU216HW,2013-10-13 06:15:00,
2013-10-13 01:20:00,39.9,35.4,29.32,NNW,338,0.0,0.0,84,0.00,,,0.00,WUHU216HW,2013-10-13 06:20:00,
2013-10-13 01:25:00,39.7,35.2,29.33,NNW,338,0.0,0.0,84,0.00,,,0.00,WUHU216HW,2013-10-13 06:25:00,
2013-10-13 01:31:00,39.7,35.5,29.33,NNW,338,0.0,0.0,85,0.00,,,0.00,WUHU216HW,2013-10-13 06:31:00,
2013-10-13 01:36:00,39.7,35.5,29.33,NNW,338,0.0,0.0,85,0.00,,,0.00,WUHU216HW,2013-10-13 06:36:00,
2013-10-13 01:41:00,39.7,35.5,29.33,NNW,338,0.0,0.0,85,0.00,,,0.00,WUHU216HW,2013-10-13 06:41:00,
2013-10-13 01:46:00,39.7,35.5,29.33,NNW,338,0.0,0.0,85,0.00,,,0.00,WUHU216HW,2013-10-13 06:46:00,
2013-10-13 01:51:00,39.9,35.7,29.33,NNW,338,0.0,0.0,85,0.00,,,0.00,WUHU216HW,2013-10-13 06:51:00,
2013-10-13 01:56:00,39.7,35.5,29.33,NNW,338,0.0,0.0,85,0.00,,,0.00,WUHU216HW,2013-10-13 06:56:00,
2013-10-13 02:01:00,39.7,35.5,29.33,NNW,338,0.0,0.0,85,0.00,,,0.00,WUHU216HW,2013-10-13 07:01:00,
2013-10-13 02:06:00,39.5,35.4,29.33,NNW,338,0.0,0.0,85,0.00,,,0.00,WUHU216HW,2013-10-13 07:06:00,
2013-10-13 02:12:00,39.3,35.2,29.33,NNW,338,0.0,0.0,85,0.00,,,0.00,WUHU216HW,2013-10-13 07:12:00,
2013-10-13 02:17:00,39.3,35.2,29.33,NNW,338,0.0,0.0,85,0.00,,,0.00,WUHU216HW,2013-10-13 07:17:00,
2013-10-13 02:22:00,39.3,35.2,29.33,NNW,338,0.0,0.0,85,0.00,,,0.00,WUHU216HW,2013-10-13 07:22:00,
2013-10-13 02:27:00,39.3,35.2,29.33,NNW,338,0.0,0.0,85,0.00,,,0.00,WUHU216HW,2013-10-13 07:27:00,
2013-10-13 02:32:00,39.2,35.0,29.33,NNW,338,0.0,0.0,85,0.00,,,0.00,WUHU216HW,2013-10-13 07:32:00,
2013-10-13 02:37:00,39.2,35.0,29.33,NNW,338,0.0,0.0,85,0.00,,,0.00,WUHU216HW,2013-10-13 07:37:00,
2013-10-13 02:42:00,39.3,35.2,29.33,NNW,338,0.0,0.0,85,0.00,,,0.00,WUHU216HW,2013-10-13 07:42:00,
2013-10-13 02:47:00,39.3,35.2,29.33,NNW,338,0.0,0.0,85,0.00,,,0.00,WUHU216HW,2013-10-13 07:47:00,
2013-10-13 02:53:00,39.3,35.2,29.33,NNW,338,0.0,0.0,85,0.00,,,0.00,WUHU216HW,2013-10-13 07:53:00,
2013-10-13 02:58:00,39.0,35.1,29.33,NNW,338,0.0,0.0,86,0.00,,,0.00,WUHU216HW,2013-10-13 07:58:00,
2013-10-13 03:03:00,39.0,35.1,29.33,NNW,338,0.0,0.0,86,0.00,,,0.00,WUHU216HW,2013-10-13 08:03:00,
2013-10-13 03:08:00,39.0,35.1,29.34,NNW,338,0.0,0.0,86,0.00,,,0.00,WUHU216HW,2013-10-13 08:08:00,
2013-10-13 03:13:00,39.3,35.5,29.33,NNW,338,0.0,0.0,86,0.00,,,0.00,WUHU216HW,2013-10-13 08:13:00,
2013-10-13 03:18:00,39.3,35.5,29.33,NNW,338,0.0,0.0,86,0.00,,,0.00,WUHU216HW,2013-10-13 08:18:00,
2013-10-13 03:23:00,39.3,35.5,29.33,NNW,338,0.0,0.0,86,0.00,,,0.00,WUHU216HW,2013-10-13 08:23:00,
2013-10-13 03:28:00,39.3,35.7,29.33,NNW,338,0.0,0.0,87,0.00,,,0.00,WUHU216HW,2013-10-13 08:28:00,
2013-10-13 03:33:00,39.5,35.9,29.33,NNW,338,0.0,0.0,87,0.00,,,0.00,WUHU216HW,2013-10-13 08:33:00,
2013-10-13 03:38:00,39.5,35.9,29.33,NNW,338,0.0,0.0,87,0.00,,,0.00,WUHU216HW,2013-10-13 08:38:00,
2013-10-13 03:43:00,39.5,35.9,29.33,NNW,338,0.0,0.0,87,0.00,,,0.00,WUHU216HW,2013-10-13 08:43:00,
2013-10-13 03:49:00,39.5,35.9,29.33,NNW,338,0.0,0.0,87,0.00,,,0.00,WUHU216HW,2013-10-13 08:49:00,
2013-10-13 03:54:00,39.7,36.1,29.33,NNW,338,0.0,0.0,87,0.00,,,0.00,WUHU216HW,2013-10-13 08:54:00,
2013-10-13 03:59:00,39.5,35.9,29.33,NNW,338,0.0,0.0,87,0.00,,,0.00,WUHU216HW,2013-10-13 08:59:00,
2013-10-13 04:04:00,39.5,35.9,29.33,NNW,338,0.0,0.0,87,0.00,,,0.00,WUHU216HW,2013-10-13 09:04:00,
2013-10-13 04:09:00,39.3,35.7,29.33,NNW,338,0.0,0.0,87,0.00,,,0.00,WUHU216HW,2013-10-13 09:09:00,
2013-10-13 04:14:00,39.3,35.7,29.33,NNW,338,0.0,0.0,87,0.00,,,0.00,WUHU216HW,2013-10-13 09:14:00,
2013-10-13 04:19:00,39.3,35.7,29.34,NNW,338,0.0,0.0,87,0.00,,,0.00,WUHU216HW,2013-10-13 09:19:00,
2013-10-13 04:24:00,39.3,35.7,29.34,NNW,338,0.0,0.0,87,0.00,,,0.00,WUHU216HW,2013-10-13 09:24:00,
2013-10-13 04:29:00,39.5,35.9,29.34,NNW,338,0.0,0.0,87,0.00,,,0.00,WUHU216HW,2013-10-13 09:29:00,
2013-10-13 04:34:00,39.5,35.9,29.34,NNW,338,0.0,0.0,87,0.00,,,0.00,WUHU216HW,2013-10-13 09:34:00,
2013-10-13 04:39:00,39.5,35.9,29.35,NNW,338,0.0,0.0,87,0.00,,,0.00,WUHU216HW,2013-10-13 09:39:00,
2013-10-13 04:45:00,39.3,35.5,29.35,NNW,338,0.0,0.0,86,0.00,,,0.00,WUHU216HW,2013-10-13 09:45:00,
2013-10-13 04:50:00,39.3,35.5,29.35,NNW,338,0.0,0.0,86,0.00,,,0.00,WUHU216HW,2013-10-13 09:50:00,
2013-10-13 04:55:00,39.3,35.5,29.34,NNW,338,0.0,0.0,86,0.00,,,0.00,WUHU216HW,2013-10-13 09:55:00,
2013-10-13 05:00:00,39.3,35.5,29.35,NNW,338,0.0,0.0,86,0.00,,,0.00,WUHU216HW,2013-10-13 10:00:00,
2013-10-13 05:05:00,39.3,35.5,29.35,NNW,338,0.0,0.0,86,0.00,,,0.00,WUHU216HW,2013-10-13 10:05:00,
2013-10-13 05:10:00,39.9,36.3,29.35,NNW,338,0.0,0.0,87,0.00,,,0.00,WUHU216HW,2013-10-13 10:10:00,
2013-10-13 05:15:00,40.1,36.5,29.35,NNW,338,0.0,0.0,87,0.00,,,0.00,WUHU216HW,2013-10-13 10:15:00,
2013-10-13 05:20:00,40.2,36.6,29.35,NNW,338,0.0,0.0,87,0.00,,,0.00,WUHU216HW,2013-10-13 10:20:00,
2013-10-13 05:25:00,40.8,37.2,29.35,NNW,338,0.0,0.0,87,0.00,,,0.00,WUHU216HW,2013-10-13 10:25:00,
2013-10-13 05:30:00,41.1,37.2,29.35,NNW,338,0.0,0.0,86,0.00,,,0.00,WUHU216HW,2013-10-13 10:30:00,
2013-10-13 05:36:00,41.5,37.6,29.35,NNW,338,0.0,0.0,86,0.00,,,0.00,WUHU216HW,2013-10-13 10:36:00,
2013-10-13 05:41:00,42.0,38.1,29.35,NNW,338,0.0,0.0,86,0.00,,,0.00,WUHU216HW,2013-10-13 10:41:00,
2013-10-13 05:46:00,42.0,37.8,29.35,NNW,338,0.0,0.0,85,0.00,,,0.00,WUHU216HW,2013-10-13 10:46:00,
2013-10-13 05:51:00,41.7,37.4,29.35,NNW,338,0.0,0.0,85,0.00,,,0.00,WUHU216HW,2013-10-13 10:51:00,
2013-10-13 05:56:00,41.3,37.1,29.35,NNW,338,0.0,0.0,85,0.00,,,0.00,WUHU216HW,2013-10-13 10:56:00,
2013-10-13 06:01:00,41.1,36.9,29.35,NNW,338,0.0,0.0,85,0.00,,,0.00,WUHU216HW,2013-10-13 11:01:00,
2013-10-13 06:06:00,41.1,36.9,29.35,NNW,338,0.0,0.0,85,0.00,,,0.00,WUHU216HW,2013-10-13 11:06:00,
2013-10-13 06:11:00,41.1,36.9,29.35,NNW,338,0.0,0.0,85,0.00,,,0.00,WUHU216HW,2013-10-13 11:11:00,
2013-10-13 06:16:00,41.1,37.1,29.35,NNW,338,0.0,0.0,85,0.00,,,0.00,WUHU216HW,2013-10-13 11:16:00,
2013-10-13 06:21:00,41.3,37.1,29.35,NNW,338,0.0,0.0,85,0.00,,,0.00,WUHU216HW,2013-10-13 11:21:00,
2013-10-13 06:27:00,41.5,37.3,29.35,NNW,338,0.0,0.0,85,0.00,,,0.00,WUHU216HW,2013-10-13 11:27:00,
2013-10-13 06:32:00,41.7,37.1,29.35,NNW,338,0.0,0.0,84,0.00,,,0.00,WUHU216HW,2013-10-13 11:32:00,
2013-10-13 06:37:00,41.7,37.1,29.36,NNW,338,0.0,0.0,84,0.00,,,0.00,WUHU216HW,2013-10-13 11:37:00,
2013-10-13 06:42:00,41.5,36.6,29.36,NNW,338,0.0,0.0,83,0.00,,,0.00,WUHU216HW,2013-10-13 11:42:00,
2013-10-13 06:47:00,41.5,36.6,29.36,NNW,338,0.0,0.0,83,0.00,,,0.00,WUHU216HW,2013-10-13 11:47:00,
2013-10-13 06:52:00,41.5,36.6,29.36,NNW,338,0.0,0.0,83,0.00,,,0.00,WUHU216HW,2013-10-13 11:52:00,
2013-10-13 06:57:00,41.7,37.1,29.36,NNW,338,0.0,0.0,84,0.00,,,0.00,WUHU216HW,2013-10-13 11:57:00,
2013-10-13 07:02:00,41.7,36.8,29.36,NNW,338,0.0,0.0,83,0.00,,,0.00,WUHU216HW,2013-10-13 12:02:00,
2013-10-13 07:07:00,41.7,36.8,29.37,NNW,338,0.0,0.0,83,0.00,,,0.00,WUHU216HW,2013-10-13 12:07:00,
2013-10-13 07:12:00,41.5,36.6,29.37,NNW,338,0.0,0.0,83,0.00,,,0.00,WUHU216HW,2013-10-13 12:12:00,
2013-10-13 07:17:00,41.5,36.6,29.37,NNW,338,0.0,0.0,83,0.00,,,0.00,WUHU216HW,2013-10-13 12:17:00,
2013-10-13 07:22:00,41.3,36.5,29.37,NNW,338,0.0,0.0,83,0.00,,,0.00,WUHU216HW,2013-10-13 12:22:00,
2013-10-13 07:27:00,41.1,36.3,29.37,NNW,338,0.0,0.0,83,0.00,,,0.00,WUHU216HW,2013-10-13 12:27:00,
2013-10-13 07:33:00,41.0,35.8,29.37,NNW,338,0.0,0.0,82,0.00,,,0.00,WUHU216HW,2013-10-13 12:33:00,
2013-10-13 07:38:00,40.8,35.9,29.38,NNW,338,0.0,0.0,83,0.00,,,0.00,WUHU216HW,2013-10-13 12:38:00,
2013-10-13 07:43:00,41.1,36.3,29.38,NNW,338,0.0,0.0,83,0.00,,,0.00,WUHU216HW,2013-10-13 12:43:00,
2013-10-13 07:48:00,41.5,36.6,29.38,NNW,338,0.0,0.0,83,0.00,,,0.00,WUHU216HW,2013-10-13 12:48:00,
2013-10-13 07:53:00,41.9,37.0,29.38,NNW,338,0.0,0.0,83,0.00,,,0.00,WUHU216HW,2013-10-13 12:53:00,
2013-10-13 07:58:00,42.6,37.7,29.39,NNW,338,0.0,0.0,83,0.00,,,0.00,WUHU216HW,2013-10-13 12:58:00,
2013-10-13 08:03:00,42.9,38.1,29.40,NNW,338,0.0,0.0,83,0.00,,,0.00,WUHU216HW,2013-10-13 13:03:00,
2013-10-13 08:08:00,44.0,39.2,29.40,NNW,338,0.0,0.0,83,0.00,,,0.00,WUHU216HW,2013-10-13 13:08:00,
2013-10-13 08:13:00,44.9,39.8,29.40,NNW,338,0.0,0.0,82,0.00,,,0.00,WUHU216HW,2013-10-13 13:13:00,
2013-10-13 08:18:00,45.1,39.6,29.40,NNW,338,0.0,0.0,81,0.00,,,0.00,WUHU216HW,2013-10-13 13:18:00,
2013-10-13 08:23:00,46.2,40.7,29.40,NNW,338,0.0,0.0,81,0.00,,,0.00,WUHU216HW,2013-10-13 13:23:00,
2013-10-13 08:28:00,47.3,41.4,29.40,NNW,338,0.0,0.0,80,0.00,,,0.00,WUHU216HW,2013-10-13 13:28:00,
2013-10-13 08:34:00,48.2,41.5,29.40,NNW,338,0.0,0.0,78,0.00,,,0.00,WUHU216HW,2013-10-13 13:34:00,
2013-10-13 08:39:00,49.8,42.5,29.41,NNW,338,0.0,0.0,76,0.00,,,0.00,WUHU216HW,2013-10-13 13:39:00,
2013-10-13 08:44:00,51.0,43.4,29.41,NNW,338,0.0,0.0,75,0.00,,,0.00,WUHU216HW,2013-10-13 13:44:00,
2013-10-13 08:49:00,51.8,43.4,29.41,NNW,338,0.0,0.0,73,0.00,,,0.00,WUHU216HW,2013-10-13 13:49:00,
2013-10-13 08:54:00,52.8,43.7,29.41,NNW,338,0.0,0.0,71,0.00,,,0.00,WUHU216HW,2013-10-13 13:54:00,
2013-10-13 08:59:00,53.9,44.0,29.42,NNW,338,0.0,0.0,69,0.00,,,0.00,WUHU216HW,2013-10-13 13:59:00,
2013-10-13 09:04:00,54.6,44.3,29.42,NNW,338,0.0,0.0,68,0.00,,,0.00,WUHU216HW,2013-10-13 14:04:00,
2013-10-13 09:09:00,55.2,44.0,29.42,NNW,338,0.0,0.0,66,0.00,,,0.00,WUHU216HW,2013-10-13 14:09:00,
2013-10-13 09:14:00,56.1,44.0,29.42,NNE,23,0.0,0.0,64,0.00,,,0.00,WUHU216HW,2013-10-13 14:14:00,
2013-10-13 09:19:00,56.4,44.4,29.42,ENE,68,4.4,4.4,64,0.00,,,0.00,WUHU216HW,2013-10-13 14:19:00,
2013-10-13 09:24:00,57.0,44.5,29.43,ENE,68,0.0,4.4,63,0.00,,,0.00,WUHU216HW,2013-10-13 14:24:00,
2013-10-13 09:30:00,57.9,44.1,29.43,ENE,68,1.1,4.4,60,0.00,,,0.00,WUHU216HW,2013-10-13 14:30:00,
2013-10-13 09:35:00,58.6,43.8,29.42,ENE,68,0.0,4.2,58,0.00,,,0.00,WUHU216HW,2013-10-13 14:35:00,
2013-10-13 09:40:00,58.8,43.1,29.42,ENE,68,0.0,1.1,56,0.00,,,0.00,WUHU216HW,2013-10-13 14:40:00,
2013-10-13 09:45:00,59.5,43.7,29.43,ESE,113,0.0,5.8,56,0.00,,,0.00,WUHU216HW,2013-10-13 14:45:00,
2013-10-13 09:50:00,60.4,44.1,29.43,ESE,113,0.0,5.8,55,0.00,,,0.00,WUHU216HW,2013-10-13 14:50:00,
2013-10-13 09:55:00,61.1,42.8,29.43,ENE,68,0.0,0.0,51,0.00,,,0.00,WUHU216HW,2013-10-13 14:55:00,
2013-10-13 10:00:00,61.3,43.0,29.43,NE,45,0.0,0.0,51,0.00,,,0.00,WUHU216HW,2013-10-13 15:00:00,
2013-10-13 10:05:00,61.8,43.0,29.43,ENE,68,2.6,2.6,50,0.00,,,0.00,WUHU216HW,2013-10-13 15:05:00,
2013-10-13 10:10:00,62.4,42.3,29.44,ENE,68,0.0,2.6,48,0.00,,,0.00,WUHU216HW,2013-10-13 15:10:00,
2013-10-13 10:16:00,62.4,42.3,29.44,NE,45,5.1,5.1,48,0.00,,,0.00,WUHU216HW,2013-10-13 15:16:00,
2013-10-13 10:21:00,62.7,42.7,29.43,ENE,68,7.8,7.8,48,0.00,,,0.00,WUHU216HW,2013-10-13 15:21:00,
2013-10-13 10:26:00,63.3,43.1,29.44,ESE,113,0.0,7.8,48,0.00,,,0.00,WUHU216HW,2013-10-13 15:26:00,
2013-10-13 10:31:00,63.5,42.7,29.44,ENE,68,0.0,2.4,47,0.00,,,0.00,WUHU216HW,2013-10-13 15:31:00,
2013-10-13 10:36:00,63.8,43.1,29.44,NE,45,0.0,2.4,47,0.00,,,0.00,WUHU216HW,2013-10-13 15:36:00,
2013-10-13 10:41:00,64.5,43.7,29.44,East,90,5.5,6.0,47,0.00,,,0.00,WUHU216HW,2013-10-13 15:41:00,
2013-10-13 10:46:00,64.7,42.1,29.44,NE,45,5.8,6.0,44,0.00,,,0.00,WUHU216HW,2013-10-13 15:46:00,
2013-10-13 10:51:00,64.9,42.9,29.44,ENE,68,3.8,5.8,45,0.00,,,0.00,WUHU216HW,2013-10-13 15:51:00,
2013-10-13 10:56:00,65.4,42.8,29.43,ENE,68,1.1,5.8,44,0.00,,,0.00,WUHU216HW,2013-10-13 15:56:00,
2013-10-13 11:01:00,65.4,41.1,29.44,East,90,6.2,9.3,41,0.00,,,0.00,WUHU216HW,2013-10-13 16:01:00,
2013-10-13 11:07:00,65.8,42.6,29.44,ENE,68,5.8,9.3,43,0.00,,,0.00,WUHU216HW,2013-10-13 16:07:00,
2013-10-13 11:12:00,66.3,43.1,29.44,ENE,68,0.0,6.2,43,0.00,,,0.00,WUHU216HW,2013-10-13 16:12:00,
2013-10-13 11:17:00,66.7,42.8,29.44,ENE,68,7.6,7.6,42,0.00,,,0.00,WUHU216HW,2013-10-13 16:17:00,
2013-10-13 11:22:00,66.9,43.0,29.44,ENE,68,0.0,7.6,42,0.00,,,0.00,WUHU216HW,2013-10-13 16:22:00,
2013-10-13 11:27:00,67.6,43.6,29.43,East,90,0.0,7.6,42,0.00,,,0.00,WUHU216HW,2013-10-13 16:27:00,
2013-10-13 11:32:00,67.2,40.6,29.44,ENE,68,6.9,7.8,38,0.00,,,0.00,WUHU216HW,2013-10-13 16:32:00,
2013-10-13 11:37:00,66.2,40.4,29.43,ENE,68,7.1,7.8,39,0.00,,,0.00,WUHU216HW,2013-10-13 16:37:00,
2013-10-13 11:42:00,66.2,41.1,29.43,ENE,68,0.0,7.1,40,0.00,,,0.00,WUHU216HW,2013-10-13 16:42:00,
2013-10-13 11:47:00,67.2,42.7,29.43,ENE,68,3.3,7.1,41,0.00,,,0.00,WUHU216HW,2013-10-13 16:47:00,
2013-10-13 11:53:00,68.0,41.3,29.44,NE,45,3.8,7.1,38,0.00,,,0.00,WUHU216HW,2013-10-13 16:53:00,
2013-10-13 11:58:00,68.5,40.3,29.44,ENE,68,0.0,6.4,36,0.00,,,0.00,WUHU216HW,2013-10-13 16:58:00,
2013-10-13 12:03:00,69.0,41.5,29.44,ENE,68,14.3,14.3,37,0.00,,,0.00,WUHU216HW,2013-10-13 17:03:00,
2013-10-13 12:08:00,69.0,40.8,29.44,ENE,68,14.3,14.3,36,0.00,,,0.00,WUHU216HW,2013-10-13 17:08:00,
2013-10-13 12:13:00,69.2,39.5,29.43,ENE,68,4.6,14.3,34,0.00,,,0.00,WUHU216HW,2013-10-13 17:13:00,
2013-10-13 12:18:00,69.6,40.5,29.43,ENE,68,0.0,4.6,35,0.00,,,0.00,WUHU216HW,2013-10-13 17:18:00,
2013-10-13 12:23:00,70.1,41.7,29.43,North,0,8.9,8.9,36,0.00,,,0.00,WUHU216HW,2013-10-13 17:23:00,
2013-10-13 12:28:00,70.3,41.2,29.43,ENE,68,7.8,8.9,35,0.00,,,0.00,WUHU216HW,2013-10-13 17:28:00,
2013-10-13 12:33:00,70.3,40.4,29.43,ENE,68,7.3,7.8,34,0.00,,,0.00,WUHU216HW,2013-10-13 17:33:00,
2013-10-13 12:38:00,70.5,39.1,29.42,NE,45,6.4,7.8,32,0.00,,,0.00,WUHU216HW,2013-10-13 17:38:00,
2013-10-13 12:43:00,69.9,40.1,29.42,NE,45,0.0,7.3,34,0.00,,,0.00,WUHU216HW,2013-10-13 17:43:00,
2013-10-13 12:48:00,70.3,40.4,29.42,ENE,68,2.9,7.1,34,0.00,,,0.00,WUHU216HW,2013-10-13 17:48:00,
2013-10-13 12:53:00,70.8,40.2,29.42,ENE,68,7.8,7.8,34,0.00,,,0.00,WUHU216HW,2013-10-13 17:53:00,
2013-10-13 12:58:00,70.8,40.9,29.42,NE,45,11.1,11.1,34,0.00,,,0.00,WUHU216HW,2013-10-13 17:58:00,
2013-10-13 13:03:00,71.4,41.4,29.42,NE,45,6.2,11.1,34,0.00,,,0.00,WUHU216HW,2013-10-13 18:03:00,
2013-10-13 13:08:00,71.4,40.7,29.42,NE,45,9.3,11.1,33,0.00,,,0.00,WUHU216HW,2013-10-13 18:08:00,
2013-10-13 13:13:00,71.4,40.7,29.41,ENE,68,6.2,9.3,33,0.00,,,0.00,WUHU216HW,2013-10-13 18:13:00,
2013-10-13 13:18:00,70.8,40.2,29.41,ENE,68,6.2,9.3,33,0.00,,,0.00,WUHU216HW,2013-10-13 18:18:00,
2013-10-13 13:24:00,71.2,41.2,29.40,ENE,68,6.9,8.0,34,0.00,,,0.00,WUHU216HW,2013-10-13 18:24:00,
2013-10-13 13:29:00,71.2,41.2,29.40,East,90,6.9,6.9,34,0.00,,,0.00,WUHU216HW,2013-10-13 18:29:00,
2013-10-13 13:34:00,71.7,41.0,29.40,NE,45,4.2,6.9,33,0.00,,,0.00,WUHU216HW,2013-10-13 18:34:00,
2013-10-13 13:39:00,71.4,39.9,29.40,NE,45,4.6,6.7,32,0.00,,,0.00,WUHU216HW,2013-10-13 18:39:00,
2013-10-13 13:44:00,71.4,40.7,29.39,NE,45,11.1,11.1,33,0.00,,,0.00,WUHU216HW,2013-10-13 18:44:00,
2013-10-13 13:49:00,71.7,41.0,29.39,NE,45,0.0,11.1,33,0.00,,,0.00,WUHU216HW,2013-10-13 18:49:00,
2013-10-13 13:54:00,72.1,42.0,29.39,ESE,113,1.5,10.2,34,0.00,,,0.00,WUHU216HW,2013-10-13 18:54:00,
2013-10-13 13:59:00,72.1,41.3,29.39,ENE,68,3.8,10.2,33,0.00,,,0.00,WUHU216HW,2013-10-13 18:59:00,
2013-10-13 14:04:00,72.3,40.7,29.40,ENE,68,7.1,7.1,32,0.00,,,0.00,WUHU216HW,2013-10-13 19:04:00,
2013-10-13 14:09:00,72.6,41.7,29.39,ENE,68,0.0,7.1,33,0.00,,,0.00,WUHU216HW,2013-10-13 19:09:00,
2013-10-13 14:14:00,72.8,40.4,29.39,ENE,68,4.4,4.4,31,0.00,,,0.00,WUHU216HW,2013-10-13 19:14:00,
2013-10-13 14:19:00,72.6,41.0,29.39,ENE,68,11.8,11.8,32,0.00,,,0.00,WUHU216HW,2013-10-13 19:19:00,
2013-10-13 14:25:00,72.3,40.7,29.38,ENE,68,4.2,11.8,32,0.00,,,0.00,WUHU216HW,2013-10-13 19:25:00,
2013-10-13 14:30:00,72.5,41.6,29.38,ENE,68,4.2,8.2,33,0.00,,,0.00,WUHU216HW,2013-10-13 19:30:00,
2013-10-13 14:35:00,72.8,41.9,29.38,NNE,23,6.4,6.4,33,0.00,,,0.00,WUHU216HW,2013-10-13 19:35:00,
2013-10-13 14:40:00,73.0,40.5,29.37,ESE,113,5.5,6.4,31,0.00,,,0.00,WUHU216HW,2013-10-13 19:40:00,
2013-10-13 14:45:00,73.2,42.2,29.37,East,90,4.9,5.5,33,0.00,,,0.00,WUHU216HW,2013-10-13 19:45:00,
2013-10-13 14:50:00,73.2,40.6,29.37,NE,45,0.0,5.5,31,0.00,,,0.00,WUHU216HW,2013-10-13 19:50:00,
2013-10-13 14:55:00,73.5,41.0,29.37,ENE,68,0.0,6.7,31,0.00,,,0.00,WUHU216HW,2013-10-13 19:55:00,
2013-10-13 15:00:00,73.2,41.4,29.37,ENE,68,0.0,8.9,32,0.00,,,0.00,WUHU216HW,2013-10-13 20:00:00,
2013-10-13 15:05:00,73.2,40.6,29.37,ESE,113,4.0,8.9,31,0.00,,,0.00,WUHU216HW,2013-10-13 20:05:00,
2013-10-13 15:10:00,73.0,40.5,29.36,SE,135,0.0,4.0,31,0.00,,,0.00,WUHU216HW,2013-10-13 20:10:00,
2013-10-13 15:15:00,73.2,41.4,29.36,SE,135,0.0,4.0,32,0.00,,,0.00,WUHU216HW,2013-10-13 20:15:00,
2013-10-13 15:20:00,73.4,41.6,29.35,NE,45,6.2,6.2,32,0.00,,,0.00,WUHU216HW,2013-10-13 20:20:00,
2013-10-13 15:25:00,73.2,40.6,29.35,ENE,68,0.0,6.2,31,0.00,,,0.00,WUHU216HW,2013-10-13 20:25:00,
2013-10-13 15:30:00,73.5,41.7,29.35,ENE,68,0.0,3.5,32,0.00,,,0.00,WUHU216HW,2013-10-13 20:30:00,
2013-10-13 15:35:00,73.2,40.6,29.35,ENE,68,0.0,0.0,31,0.00,,,0.00,WUHU216HW,2013-10-13 20:35:00,
2013-10-13 15:40:00,73.0,41.3,29.35,ENE,68,0.0,3.8,32,0.00,,,0.00,WUHU216HW,2013-10-13 20:40:00,
2013-10-13 15:45:00,73.2,40.6,29.35,ENE,68,0.0,3.8,31,0.00,,,0.00,WUHU216HW,2013-10-13 20:45:00,
2013-10-13 15:50:00,73.2,40.6,29.35,WSW,248,0.0,0.0,31,0.00,,,0.00,WUHU216HW,2013-10-13 20:50:00,
2013-10-13 15:55:00,73.0,40.5,29.35,WSW,248,7.6,7.6,31,0.00,,,0.00,WUHU216HW,2013-10-13 20:55:00,
2013-10-13 16:00:00,72.6,40.2,29.35,WSW,248,6.4,7.6,31,0.00,,,0.00,WUHU216HW,2013-10-13 21:00:00,
2013-10-13 16:05:00,72.5,40.8,29.35,NW,315,0.0,7.6,32,0.00,,,0.00,WUHU216HW,2013-10-13 21:05:00,
2013-10-13 16:10:00,72.3,39.9,29.35,WSW,248,4.9,6.4,31,0.00,,,0.00,WUHU216HW,2013-10-13 21:10:00,
2013-10-13 16:16:00,71.9,40.4,29.34,WSW,248,0.0,4.9,32,0.00,,,0.00,WUHU216HW,2013-10-13 21:16:00,
2013-10-13 16:21:00,71.7,40.2,29.34,WSW,248,0.0,8.7,32,0.00,,,0.00,WUHU216HW,2013-10-13 21:21:00,
2013-10-13 16:26:00,71.4,39.9,29.34,WSW,248,0.0,8.7,32,0.00,,,0.00,WUHU216HW,2013-10-13 21:26:00,
2013-10-13 16:31:00,71.4,40.7,29.33,WSW,248,0.0,4.4,33,0.00,,,0.00,WUHU216HW,2013-10-13 21:31:00,
2013-10-13 16:36:00,71.2,39.8,29.34,NE,45,6.4,6.4,32,0.00,,,0.00,WUHU216HW,2013-10-13 21:36:00,
2013-10-13 16:41:00,70.8,40.2,29.33,NE,45,6.4,6.4,33,0.00,,,0.00,WUHU216HW,2013-10-13 21:41:00,
2013-10-13 16:46:00,70.7,40.0,29.33,NE,45,6.4,6.4,33,0.00,,,0.00,WUHU216HW,2013-10-13 21:46:00,
2013-10-13 16:51:00,70.1,40.3,29.33,WSW,248,0.0,6.4,34,0.00,,,0.00,WUHU216HW,2013-10-13 21:51:00,
2013-10-13 16:56:00,69.8,39.9,29.33,WSW,248,6.7,6.7,34,0.00,,,0.00,WUHU216HW,2013-10-13 21:56:00,
2013-10-13 17:01:00,69.6,39.8,29.33,ENE,68,0.0,6.7,34,0.00,,,0.00,WUHU216HW,2013-10-13 22:01:00,
2013-10-13 17:06:00,69.2,40.2,29.33,East,90,0.0,6.7,35,0.00,,,0.00,WUHU216HW,2013-10-13 22:06:00,
2013-10-13 17:11:00,68.9,39.9,29.33,ESE,113,0.0,0.0,35,0.00,,,0.00,WUHU216HW,2013-10-13 22:11:00,
2013-10-13 17:16:00,68.5,39.5,29.33,ENE,68,0.0,0.0,35,0.00,,,0.00,WUHU216HW,2013-10-13 22:16:00,
2013-10-13 17:21:00,68.1,39.2,29.33,ENE,68,0.0,0.0,35,0.00,,,0.00,WUHU216HW,2013-10-13 22:21:00,
2013-10-13 17:26:00,67.8,39.5,29.33,ENE,68,0.0,0.0,36,0.00,,,0.00,WUHU216HW,2013-10-13 22:26:00,
2013-10-13 17:31:00,67.6,39.5,29.33,ENE,68,0.0,2.6,36,0.00,,,0.00,WUHU216HW,2013-10-13 22:31:00,
2013-10-13 17:36:00,67.2,38.4,29.33,ENE,68,0.0,2.6,35,0.00,,,0.00,WUHU216HW,2013-10-13 22:36:00,
2013-10-13 17:41:00,67.1,39.0,29.33,ENE,68,0.0,2.2,36,0.00,,,0.00,WUHU216HW,2013-10-13 22:41:00,
2013-10-13 17:47:00,66.5,38.6,29.33,East,90,0.0,2.2,36,0.00,,,0.00,WUHU216HW,2013-10-13 22:47:00,
2013-10-13 17:52:00,66.3,38.4,29.33,ENE,68,0.0,0.0,36,0.00,,,0.00,WUHU216HW,2013-10-13 22:52:00,
2013-10-13 17:57:00,66.0,38.8,29.33,ENE,68,0.0,0.0,37,0.00,,,0.00,WUHU216HW,2013-10-13 22:57:00,
2013-10-13 18:02:00,65.8,37.9,29.33,ENE,68,0.0,0.0,36,0.00,,,0.00,WUHU216HW,2013-10-13 23:02:00,
2013-10-13 18:07:00,65.4,38.3,29.33,ENE,68,0.0,0.0,37,0.00,,,0.00,WUHU216HW,2013-10-13 23:07:00,
2013-10-13 18:12:00,64.5,38.2,29.33,East,90,0.0,0.0,38,0.00,,,0.00,WUHU216HW,2013-10-13 23:12:00,
2013-10-13 18:17:00,64.0,38.5,29.33,East,90,0.0,0.0,39,0.00,,,0.00,WUHU216HW,2013-10-13 23:17:00,
2013-10-13 18:22:00,62.9,38.2,29.33,East,90,0.0,0.0,40,0.00,,,0.00,WUHU216HW,2013-10-13 23:22:00,
2013-10-13 18:28:00,62.2,37.6,29.33,East,90,0.0,0.0,40,0.00,,,0.00,WUHU216HW,2013-10-13 23:28:00,
2013-10-13 18:33:00,61.5,37.5,29.33,East,90,0.0,0.0,41,0.00,,,0.00,WUHU216HW,2013-10-13 23:33:00,
2013-10-13 18:38:00,60.9,38.2,29.33,East,90,0.0,0.0,43,0.00,,,0.00,WUHU216HW,2013-10-13 23:38:00,
2013-10-13 18:43:00,60.6,37.8,29.33,East,90,0.0,0.0,43,0.00,,,0.00,WUHU216HW,2013-10-13 23:43:00,
2013-10-13 18:48:00,59.5,36.9,29.33,East,90,0.0,0.0,43,0.00,,,0.00,WUHU216HW,2013-10-13 23:48:00,
2013-10-13 18:53:00,58.8,36.8,29.33,East,90,0.0,0.0,44,0.00,,,0.00,WUHU216HW,2013-10-13 23:53:00,
2013-10-13 18:58:00,58.2,37.1,29.33,East,90,0.0,0.0,46,0.00,,,0.00,WUHU216HW,2013-10-13 23:58:00,
2013-10-13 19:04:00,57.0,36.3,29.33,East,90,0.0,0.0,46,0.00,,,0.00,WUHU216HW,2013-10-14 00:04:00,
2013-10-13 19:09:00,56.3,36.2,29.33,East,90,0.0,0.0,47,0.00,,,0.00,WUHU216HW,2013-10-14 00:09:00,
2013-10-13 19:14:00,55.2,35.7,29.33,East,90,0.0,0.0,48,0.00,,,0.00,WUHU216HW,2013-10-14 00:14:00,
2013-10-13 19:19:00,54.6,35.8,29.33,East,90,0.0,0.0,49,0.00,,,0.00,WUHU216HW,2013-10-14 00:19:00,
2013-10-13 19:24:00,53.9,35.7,29.33,East,90,0.0,0.0,50,0.00,,,0.00,WUHU216HW,2013-10-14 00:24:00,
2013-10-13 19:29:00,53.4,36.1,29.33,East,90,0.0,0.0,52,0.00,,,0.00,WUHU216HW,2013-10-14 00:29:00,
2013-10-13 19:34:00,52.8,35.6,29.34,East,90,0.0,0.0,52,0.00,,,0.00,WUHU216HW,2013-10-14 00:34:00,
2013-10-13 19:39:00,52.3,36.1,29.34,East,90,0.0,0.0,54,0.00,,,0.00,WUHU216HW,2013-10-14 00:39:00,
2013-10-13 19:44:00,51.9,36.2,29.34,East,90,0.0,0.0,55,0.00,,,0.00,WUHU216HW,2013-10-14 00:44:00,
2013-10-13 19:50:00,51.6,36.3,29.34,East,90,0.0,0.0,56,0.00,,,0.00,WUHU216HW,2013-10-14 00:50:00,
2013-10-13 19:55:00,51.4,36.6,29.34,East,90,0.0,0.0,57,0.00,,,0.00,WUHU216HW,2013-10-14 00:55:00,
2013-10-13 20:00:00,51.0,35.8,29.34,East,90,0.0,0.0,56,0.00,,,0.00,WUHU216HW,2013-10-14 01:00:00,
2013-10-13 20:05:00,50.3,35.6,29.34,East,90,0.0,0.0,57,0.00,,,0.00,WUHU216HW,2013-10-14 01:05:00,
2013-10-13 20:10:00,49.8,35.1,29.34,East,90,0.0,0.0,57,0.00,,,0.00,WUHU216HW,2013-10-14 01:10:00,
2013-10-13 20:15:00,49.6,35.4,29.34,East,90,0.0,0.0,58,0.00,,,0.00,WUHU216HW,2013-10-14 01:15:00,
2013-10-13 20:20:00,49.2,35.5,29.35,East,90,0.0,0.0,59,0.00,,,0.00,WUHU216HW,2013-10-14 01:20:00,
2013-10-13 20:25:00,49.1,35.4,29.35,East,90,0.0,0.0,59,0.00,,,0.00,WUHU216HW,2013-10-14 01:25:00,
2013-10-13 20:30:00,49.1,36.2,29.35,East,90,0.0,0.0,61,0.00,,,0.00,WUHU216HW,2013-10-14 01:30:00,
2013-10-13 20:36:00,48.9,36.0,29.35,East,90,0.0,0.0,61,0.00,,,0.00,WUHU216HW,2013-10-14 01:36:00,
2013-10-13 20:41:00,48.5,35.7,29.35,East,90,0.0,0.0,61,0.00,,,0.00,WUHU216HW,2013-10-14 01:41:00,
2013-10-13 20:46:00,48.3,35.6,29.35,East,90,0.0,0.0,61,0.00,,,0.00,WUHU216HW,2013-10-14 01:46:00,
2013-10-13 20:51:00,48.0,36.0,29.36,East,90,0.0,0.0,63,0.00,,,0.00,WUHU216HW,2013-10-14 01:51:00,
2013-10-13 20:56:00,47.8,36.6,29.35,East,90,0.0,0.0,65,0.00,,,0.00,WUHU216HW,2013-10-14 01:56:00,
2013-10-13 21:01:00,47.6,36.9,29.35,East,90,0.0,0.0,66,0.00,,,0.00,WUHU216HW,2013-10-14 02:01:00,
2013-10-13 21:06:00,47.4,36.2,29.35,East,90,0.0,0.0,65,0.00,,,0.00,WUHU216HW,2013-10-14 02:06:00,
2013-10-13 21:11:00,47.1,35.9,29.36,East,90,0.0,0.0,65,0.00,,,0.00,WUHU216HW,2013-10-14 02:11:00,
2013-10-13 21:16:00,46.9,36.1,29.35,East,90,0.0,0.0,66,0.00,,,0.00,WUHU216HW,2013-10-14 02:16:00,
2013-10-13 21:21:00,46.9,36.1,29.35,East,90,0.0,0.0,66,0.00,,,0.00,WUHU216HW,2013-10-14 02:21:00,
2013-10-13 21:27:00,46.7,36.3,29.35,East,90,0.0,0.0,67,0.00,,,0.00,WUHU216HW,2013-10-14 02:27:00,
2013-10-13 21:32:00,46.7,36.3,29.35,East,90,0.0,0.0,67,0.00,,,0.00,WUHU216HW,2013-10-14 02:32:00,
2013-10-13 21:37:00,46.7,37.1,29.35,East,90,0.0,0.0,69,0.00,,,0.00,WUHU216HW,2013-10-14 02:37:00,
2013-10-13 21:42:00,46.2,36.6,29.35,East,90,0.0,0.0,69,0.00,,,0.00,WUHU216HW,2013-10-14 02:42:00,
2013-10-13 21:47:00,46.2,36.6,29.35,East,90,0.0,0.0,69,0.00,,,0.00,WUHU216HW,2013-10-14 02:47:00,
2013-10-13 21:52:00,46.4,36.8,29.35,East,90,0.0,0.0,69,0.00,,,0.00,WUHU216HW,2013-10-14 02:52:00,
2013-10-13 21:57:00,46.2,36.6,29.35,East,90,0.0,0.0,69,0.00,,,0.00,WUHU216HW,2013-10-14 02:57:00,
2013-10-13 22:03:00,46.2,37.0,29.35,East,90,0.0,0.0,70,0.00,,,0.00,WUHU216HW,2013-10-14 03:03:00,
2013-10-13 22:08:00,46.5,37.3,29.35,East,90,0.0,0.0,70,0.00,,,0.00,WUHU216HW,2013-10-14 03:08:00,
2013-10-13 22:13:00,46.7,37.1,29.35,East,90,0.0,0.0,69,0.00,,,0.00,WUHU216HW,2013-10-14 03:13:00,
2013-10-13 22:18:00,47.4,37.4,29.35,East,90,0.0,0.0,68,0.00,,,0.00,WUHU216HW,2013-10-14 03:18:00,
2013-10-13 22:23:00,48.2,37.7,29.36,East,90,0.0,0.0,67,0.00,,,0.00,WUHU216HW,2013-10-14 03:23:00,
2013-10-13 22:28:00,48.7,37.4,29.36,East,90,0.0,0.0,65,0.00,,,0.00,WUHU216HW,2013-10-14 03:28:00,
2013-10-13 22:33:00,49.1,37.7,29.36,East,90,0.0,0.0,65,0.00,,,0.00,WUHU216HW,2013-10-14 03:33:00,
2013-10-13 22:38:00,48.9,37.2,29.36,East,90,0.0,0.0,64,0.00,,,0.00,WUHU216HW,2013-10-14 03:38:00,
2013-10-13 22:43:00,48.9,37.2,29.35,East,90,0.0,0.0,64,0.00,,,0.00,WUHU216HW,2013-10-14 03:43:00,
2013-10-13 22:48:00,48.9,37.2,29.35,East,90,0.0,0.0,64,0.00,,,0.00,WUHU216HW,2013-10-14 03:48:00,
2013-10-13 22:53:00,48.9,37.2,29.35,ENE,68,0.0,0.0,64,0.00,,,0.00,WUHU216HW,2013-10-14 03:53:00,
2013-10-13 22:58:00,49.2,37.5,29.35,ENE,68,0.0,0.0,64,0.00,,,0.00,WUHU216HW,2013-10-14 03:58:00,
2013-10-13 23:01:00,49.2,37.5,29.35,ENE,68,0.0,0.0,63,0.00,,,0.00,WUHU216HW,2013-10-14 04:01:00,
2013-10-13 23:02:00,49.2,37.1,29.35,ENE,68,0.0,0.0,63,0.00,,,0.00,WUHU216HW,2013-10-14 04:02:00,
2013-10-13 23:03:00,49.2,37.1,29.35,ENE,68,0.0,0.0,63,0.00,,,0.00,WUHU216HW,2013-10-14 04:03:00,
2013-10-13 23:08:00,49.6,37.5,29.35,ENE,68,0.0,0.0,63,0.00,,,0.00,WUHU216HW,2013-10-14 04:08:00,
2013-10-13 23:14:00,49.6,37.5,29.35,ENE,68,0.0,0.0,62,0.00,,,0.00,WUHU216HW,2013-10-14 04:14:00,
2013-10-13 23:19:00,49.6,37.1,29.35,ENE,68,0.0,0.0,62,0.00,,,0.00,WUHU216HW,2013-10-14 04:19:00,
2013-10-13 23:24:00,49.6,37.1,29.35,ENE,68,0.0,0.0,62,0.00,,,0.00,WUHU216HW,2013-10-14 04:24:00,
2013-10-13 23:29:00,49.2,36.8,29.35,ENE,68,0.0,0.0,62,0.00,,,0.00,WUHU216HW,2013-10-14 04:29:00,
2013-10-13 23:34:00,49.1,36.6,29.34,ENE,68,0.0,0.0,62,0.00,,,0.00,WUHU216HW,2013-10-14 04:34:00,
2013-10-13 23:39:00,48.9,36.4,29.34,ENE,68,0.0,0.0,62,0.00,,,0.00,WUHU216HW,2013-10-14 04:39:00,
2013-10-13 23:44:00,48.5,36.5,29.34,ENE,68,0.0,0.0,63,0.00,,,0.00,WUHU216HW,2013-10-14 04:44:00,
2013-10-13 23:49:00,48.3,36.3,29.34,ENE,68,0.0,0.0,63,0.00,,,0.00,WUHU216HW,2013-10-14 04:49:00,
2013-10-13 23:54:00,48.3,36.3,29.34,ENE,68,0.0,0.0,63,0.00,,,0.00,WUHU216HW,2013-10-14 04:54:00,